Sioux City, IA

3:57 PM CDT on September 21, 2017 (GMT -0500)
Sioux Gateway

Weather History for KSUX - December, 2013

Change the Weather History Date:

Tuesday, December 3, 2013

  Actual Average Record
Temperature  
Mean Temperature 36 °F 26 °F  
Max Temperature 44 °F 36 °F 61 °F (1998)
Min Temperature 28 °F 17 °F -9 °F (1919)
Degree Days  
Heating Degree Days 29 39  
Month to date heating degree days 88 115  
Since 1 July heating degree days 1512 1591  
Cooling Degree Days 0 0  
Month to date cooling degree days 0 0  
Year to date cooling degree days 960 869  
Moisture  
Dew Point 30 °F    
Average Humidity 82    
Maximum Humidity 93    
Minimum Humidity 61    
Precipitation  
Precipitation 0.00 in 0.03 in 1.08 in (1953)
Month to date precipitation T 0.10  
Year to date precipitation 26.55 27.04  
Snow  
Snow 0.00 in 0.20 in 8.40 in (1897)
Month to date snowfall 0.0 0.7  
Since 1 July snowfall 0.9 6.1  
Snow Depth 0.00 in    
Sea Level Pressure  
Sea Level Pressure 29.65 in    
Wind  
Wind Speed 11 mph (North)    
Max Wind Speed 18 mph    
Max Gust Speed 22 mph    
Visibility 9 miles    
Events      
T = Trace of Precipitation, MM = Missing Value Source: NWS Daily Summary

Daily Weather History Graph

Daily Weather History Graph

Search for Another Location

Airport or City:

Trip Planner

Search our weather history database for the weather conditions in past years. The results will help you decide how hot, cold, wet, or windy it might be!

Date:

Astronomy

Dec. 03, 2013 Rise Set
Actual Time 7:37 AM CST 4:53 PM CST
Civil Twilight 7:06 AM CST 5:24 PM CST
Nautical Twilight 6:30 AM CST 5:59 PM CST
Astronomical Twilight 5:57 AM CST 6:33 PM CST
Moon 8:07 AM CST (12/3) 5:58 PM CST (12/3)
Length of Visible Light 10h 18m
Length of Day
9h 15m
New Moon, 1% of the Moon is Illuminated
Dec 3
New Moon
Dec 9
First Quarter
Dec 17
Full
Dec 25
Last Quarter
Jan 1
New

Hourly Weather History & Observations

Time (CST) Temp. Windchill Dew Point Humidity Pressure Visibility Wind Dir Wind Speed Gust Speed Precip Events Conditions
12:52 AM 30.9 °F 24.3 °F 28.9 °F 92% 29.54 in 9.0 mi North 6.9 mph - N/A   Clear
1:52 AM 30.0 °F 25.2 °F 28.0 °F 92% 29.55 in 9.0 mi NNW 4.6 mph - N/A   Clear
2:52 AM 33.1 °F 26.9 °F 28.9 °F 85% 29.57 in 10.0 mi NW 6.9 mph - N/A   Clear
3:52 AM 34.0 °F 28.8 °F 30.0 °F 85% 29.57 in 10.0 mi NNW 5.8 mph - N/A   Clear
4:52 AM 35.1 °F 26.4 °F 28.9 °F 78% 29.58 in 10.0 mi North 12.7 mph - N/A   Mostly Cloudy
5:52 AM 33.1 °F 24.9 °F 28.9 °F 85% 29.58 in 9.0 mi North 10.4 mph - N/A   Clear
6:40 AM 33.1 °F 25.5 °F 30.0 °F 89% 29.56 in 6.0 mi North 9.2 mph - N/A   Overcast
6:49 AM 32.0 °F 24.2 °F 30.2 °F 93% 29.56 in 5.0 mi NNE 9.2 mph - N/A   Overcast
6:52 AM 33.1 °F 25.5 °F 30.0 °F 89% 29.59 in 5.0 mi NNE 9.2 mph - N/A   Overcast
7:52 AM 33.1 °F 24.4 °F 30.9 °F 92% 29.62 in 5.0 mi North 11.5 mph - N/A   Overcast
8:52 AM 34.0 °F 26.0 °F 30.9 °F 89% 29.65 in 5.0 mi North 10.4 mph - N/A   Overcast
9:44 AM 36.0 °F 28.0 °F 30.9 °F 82% 29.63 in 7.0 mi NNE 11.5 mph - N/A   Mostly Cloudy
9:52 AM 36.0 °F 29.6 °F 30.9 °F 82% 29.66 in 7.0 mi North 8.1 mph - N/A   Mostly Cloudy
10:50 AM 37.4 °F 30.3 °F 30.2 °F 75% 29.64 in 8.0 mi North 10.4 mph - N/A   Scattered Clouds
10:52 AM 37.9 °F 31.5 °F 30.9 °F 76% 29.66 in 8.0 mi North 9.2 mph - N/A   Partly Cloudy
11:07 AM 39.0 °F 31.4 °F 32.0 °F 76% 29.65 in 8.0 mi North 12.7 mph - N/A   Mostly Cloudy
11:52 AM 41.0 °F 34.7 °F 32.0 °F 70% 29.64 in 8.0 mi NNE 10.4 mph - N/A   Scattered Clouds
12:52 PM 43.0 °F 36.4 °F 33.1 °F 68% 29.63 in 10.0 mi North 12.7 mph - N/A   Partly Cloudy
1:48 PM 42.8 °F 35.4 °F 33.8 °F 70% 29.60 in 10.0 mi North 15.0 mph - N/A   Mostly Cloudy
1:52 PM 42.1 °F 33.9 °F 33.1 °F 70% 29.63 in 10.0 mi North 17.3 mph - N/A   Mostly Cloudy
2:52 PM 39.0 °F 30.6 °F 32.0 °F 76% 29.65 in 10.0 mi North 15.0 mph - N/A   Overcast
3:15 PM 37.9 °F 28.2 °F 32.0 °F 79% 29.65 in 10.0 mi NNW 18.4 mph - N/A   Overcast
3:52 PM 37.0 °F 28.1 °F 32.0 °F 82% 29.68 in 9.0 mi North 15.0 mph - N/A   Overcast
4:52 PM 37.0 °F 28.1 °F 30.9 °F 79% 29.69 in 9.0 mi North 15.0 mph - N/A   Overcast
5:52 PM 35.1 °F 25.2 °F 30.9 °F 85% 29.74 in 10.0 mi North 16.1 mph - N/A   Overcast
6:52 PM 35.1 °F 25.9 °F 30.0 °F 82% 29.74 in 9.0 mi North 13.8 mph - N/A   Overcast
7:52 PM 34.0 °F 27.2 °F 30.0 °F 85% 29.73 in 10.0 mi North 8.1 mph - N/A   Overcast
8:52 PM 34.0 °F 25.0 °F 30.0 °F 85% 29.74 in 10.0 mi North 12.7 mph - N/A   Overcast
9:52 PM 33.1 °F 23.9 °F 28.9 °F 85% 29.72 in 10.0 mi North 12.7 mph - N/A   Overcast
10:52 PM 32.0 °F 23.6 °F 28.9 °F 88% 29.73 in 10.0 mi North 10.4 mph - N/A   Overcast
11:52 PM 30.9 °F 21.7 °F 28.0 °F 89% 29.75 in 10.0 mi NNW 11.5 mph - N/A   Overcast